[[{"header":{"parameterUnit":"m.s-1","parameterCategory":1,"la1":30.2991,"la2":30.254,"lo1":-89.0895,"lo2":-89.0444,"dy":0.0017,"dx":0.0017,"nx":28,"ny":28,"refTime":"2025-06-20T09:00:00:Z","depth":0,"parameterNumber":2,"parameterNumberName":"U-component_of_WINDS"},"data":[0,0,0,0,0,0,0,0,0,0,0,0,0,0,0,0,0,0,0,0,0,0,0,0,0,0,0,0,0,0,0,0,0,0,0,0,0,0,0,0,0,0,0,0,0,0,0,0,0,0,0,0,0,0,0,0,0,0,0.0498,0.0499,0,0.0592,0.0593,0.0594,0.0636,0.0636,0.0636,0.0636,0.0732,0.0734,0.0737,0,0,0,0,0,0,0,0,0,0,0,0,0,0.0354,0.0356,0.0498,0.0499,0.05,0.0591,0.0593,0.0594,0.0636,0.0636,0.0636,0.0636,0.0731,0.0734,0.0737,0,0,0,0,0,0,0,0,0,0,0,0,0,0.0429,0.0357,0.0498,0.0532,0.0536,0.0591,0.0593,0.0594,0.0636,0.0636,0.0636,0.0636,0.073,0.0733,0.0737,0.0765,0,0,0.075,0.0751,0,0,0,0,0,0,0,0,0.0425,0.0434,0.0526,0.053,0.0534,0.0602,0.0577,0.0651,0.0636,0.0598,0.0636,0.0636,0.0689,0.0696,0.0714,0.0769,0.0774,0.075,0.0752,0.0754,0.0755,0,0,0,0,0,0,0,0.0419,0.043,0.0535,0.0527,0.0532,0.0543,0.0553,0.0591,0.0643,0.0601,0.0605,0.0615,0.0691,0.071,0.0716,0.0775,0.075,0.0753,0.0756,0.0757,0.0857,0.0857,0,0,0,0,0,0,0.0409,0.0426,0.0532,0.0538,0.0478,0.0545,0.0557,0.058,0.0643,0.0652,0.0615,0.0617,0.0703,0.0712,0.072,0.0756,0.0754,0.0758,0.076,0.0857,0.0857,0.0857,0,0,0,0,0,0,0.0405,0.0418,0.0528,0.0483,0.0497,0.0548,0.0574,0.0582,0.0601,0.0653,0.0663,0.0625,0.0703,0.0714,0.0753,0.076,0.0759,0.0763,0.0856,0.0857,0.0857,0.0828,0,0,0,0,0,0,0.0401,0.0416,0.0428,0.0483,0.05,0.056,0.0574,0.0584,0.0608,0.0611,0.0665,0.0674,0.0704,0.0747,0.0757,0.0765,0.0766,0.0856,0.0857,0.0857,0.0829,0.0828,0.0827,0,0,0,0,0,0.0396,0.0416,0.0428,0.0441,0.0515,0.056,0.057,0.0605,0.0609,0.062,0.0653,0.0672,0.0757,0.0751,0.0762,0.0772,0.0856,0.0857,0.0857,0.0829,0.0828,0.0827,0,0,0,0,0,0,0.036,0.0424,0.0438,0.0476,0.0513,0.0567,0.0583,0.0602,0.0638,0.0639,0.068,0.0692,0.0727,0.0754,0.0745,0.0801,0.0808,0.0811,0.0783,0.0782,0.0781,0.0774,0.0769,0,0,0,0,0,0.0357,0.0389,0.0442,0.0471,0.0489,0.0533,0.0554,0.0577,0.0616,0.0632,0.0668,0.0705,0.074,0.0763,0.0798,0.0833,0.0845,0.0845,0.0844,0.0842,0.0845,0.0864,0.0865,0.0859,0.0859,0.0859,0,0,0.0351,0.0389,0.0407,0.0465,0.0496,0.0528,0.0545,0.0578,0.0602,0.0637,0.0676,0.0703,0.0748,0.0784,0.0802,0.0807,0.0849,0.0843,0.0842,0.0845,0.0865,0.0866,0.0866,0.086,0.086,0.086,0,0,0.0355,0.0387,0.0415,0.0445,0.0492,0.0521,0.0527,0.0579,0.0598,0.0638,0.0664,0.0693,0.0753,0.0783,0.0806,0.0821,0.0839,0.0831,0.0825,0.0844,0.0845,0.0845,0.085,0.0851,0.0833,0.0833,0.0833,0,0.0341,0.039,0.0426,0.0458,0.0482,0.0515,0.0542,0.057,0.0625,0.0642,0.0646,0.0721,0.0753,0.0797,0.0801,0.0818,0.0827,0.0825,0.0842,0.0843,0.0844,0.0849,0.0851,0.0832,0.0832,0.0832,0.0832,0,0.0371,0.0404,0.0421,0.0473,0.05,0.0529,0.0569,0.0591,0.0612,0.064,0.0679,0.0719,0.0762,0.0774,0.0795,0.0821,0.0823,0.0834,0.0842,0.0842,0.0848,0.085,0.083,0.083,0.0831,0.0831,0,0,0.0357,0.0428,0.0433,0.0457,0.0511,0.0537,0.0567,0.061,0.0628,0.0665,0.0691,0.074,0.075,0.0777,0.0801,0.0817,0.0825,0.0826,0.0828,0.0825,0.0856,0.0848,0.085,0.0838,0.0838,0.0839,0.0853,0,0.0368,0.0425,0.0457,0.05,0.0531,0.0562,0.0588,0.0623,0.065,0.068,0.071,0.0744,0.0755,0.0771,0.0789,0.0821,0.0832,0.082,0.0863,0.0864,0.0851,0.0853,0.0844,0.0856,0.0855,0.0856,0.0856,0,0.039,0.0426,0.0472,0.0521,0.0535,0.0558,0.0599,0.0628,0.0668,0.0686,0.0714,0.0738,0.0771,0.0775,0.0821,0.0812,0.0831,0.0849,0.085,0.0856,0.086,0.0859,0.086,0.0862,0.086,0.0859,0.0859,0,0.0375,0.0435,0.047,0.0489,0.0547,0.0563,0.0588,0.0628,0.0651,0.0686,0.0702,0.074,0.0762,0.0791,0.0824,0.0825,0.0866,0.0874,0.0882,0.0881,0.089,0.0889,0.0895,0.0902,0.0902,0.0902,0.0902,0,0.0385,0.0412,0.0464,0.0485,0.0516,0.0553,0.0582,0.0609,0.0644,0.0671,0.07,0.0724,0.0767,0.0797,0.0823,0.0856,0.0865,0.0881,0.0888,0.0879,0.0877,0.0892,0.0893,0.0902,0.0902,0.0902,0.0902,0,0.0374,0.041,0.045,0.0501,0.0515,0.0535,0.0579,0.06,0.0628,0.0662,0.0672,0.0716,0.0752,0.0788,0.0837,0.0855,0.0887,0.0896,0.0874,0.0878,0.0884,0.0883,0.0901,0.0905,0.0908,0.0908,0.0908,0,0.0378,0.0399,0.0453,0.0473,0.0497,0.0529,0.0553,0.0589,0.0613,0.0659,0.0675,0.0714,0.0747,0.0803,0.0839,0.0876,0.0886,0.089,0.0892,0.0882,0.0887,0.0885,0.0887,0.0889,0.0889,0.0888,0.0888,0,0.0382,0.0398,0.0431,0.0471,0.0498,0.053,0.0564,0.0579,0.0622,0.0646,0.0684,0.0709,0.0759,0.0796,0.0838,0.0863,0.0883,0.0887,0.0891,0.0882,0.0869,0.0876,0.0871,0.0887,0.0887,0.0887,0.0887,0.0887,0.0379,0.0399,0.0439,0.0475,0.0504,0.0534,0.0557,0.0588,0.062,0.0663,0.0682,0.072,0.0759,0.0816,0.0841,0.087,0.0876,0.0881,0.0883,0.0884,0.0882,0.0863,0.0878,0.0878,0.0878,0.0878,0.0878,0,0.0384,0.0411,0.0444,0.049,0.0517,0.0533,0.0571,0.0593,0.0626,0.066,0.0692,0.0734,0.0771,0.0809,0.0847,0.0864,0.0874,0.0873,0.0872,0.0877,0.0875,0.0868,0.0864,0.0864,0.0864,0.0864,0.0864,0.0864,0.039,0.0425,0.0446,0.0495,0.0522,0.056,0.058,0.0607,0.0635,0.0681,0.0712,0.0736,0.0772,0.0813,0.0847,0.0857,0.087,0.0867,0.0879,0.0877,0.0878,0.0879,0.0872,0.0869,0.0869,0.088,0.088,0.088]},{"header":{"parameterUnit":"m.s-1","parameterCategory":1,"la1":30.2991,"la2":30.254,"lo1":-89.0895,"lo2":-89.0444,"dy":0.0017,"dx":0.0017,"nx":28,"ny":28,"refTime":"2025-06-20T09:00:00:Z","depth":0,"parameterNumber":3,"parameterNumberName":"V-component_of_WINDS"},"data":[0,0,0,0,0,0,0,0,0,0,0,0,0,0,0,0,0,0,0,0,0,0,0,0,0,0,0,0,0,0,0,0,0,0,0,0,0,0,0,0,0,0,0,0,0,0,0,0,0,0,0,0,0,0,0,0,0,0,3.9413,3.9413,0,3.9395,3.9395,3.9395,3.9363,3.9362,3.9362,3.9361,3.9344,3.9344,3.9344,0,0,0,0,0,0,0,0,0,0,0,0,0,3.9419,3.9419,3.9413,3.9413,3.9412,3.9395,3.9395,3.9395,3.9363,3.9362,3.9362,3.9361,3.9343,3.9344,3.9344,0,0,0,0,0,0,0,0,0,0,0,0,0,3.941,3.9419,3.9413,3.9394,3.9393,3.9395,3.9395,3.9395,3.9363,3.9362,3.9361,3.9361,3.9343,3.9344,3.9344,3.9363,0,0,3.9344,3.9344,0,0,0,0,0,0,0,0,3.9411,3.941,3.9397,3.9396,3.9394,3.938,3.9391,3.9384,3.9364,3.9374,3.9361,3.936,3.9357,3.9356,3.9354,3.9362,3.9362,3.9344,3.9344,3.9344,3.9344,0,0,0,0,0,0,0,3.9411,3.9411,3.9406,3.9397,3.9395,3.9387,3.9385,3.9389,3.9371,3.9373,3.9371,3.9369,3.9355,3.9354,3.9354,3.9361,3.9344,3.9344,3.9344,3.9345,3.9385,3.9386,0,0,0,0,0,0,3.9415,3.9411,3.9406,3.9405,3.94,3.9388,3.9385,3.9386,3.9371,3.9368,3.937,3.9368,3.9354,3.9354,3.9353,3.9375,3.9344,3.9345,3.9345,3.9384,3.9385,3.9386,0,0,0,0,0,0,3.9415,3.9414,3.9407,3.9408,3.9406,3.9389,3.9389,3.9386,3.9385,3.9368,3.9365,3.9372,3.9354,3.9353,3.9361,3.9374,3.9345,3.9345,3.9383,3.9384,3.9385,3.9418,0,0,0,0,0,0,3.9415,3.9415,3.9422,3.9408,3.9406,3.9415,3.939,3.9386,3.9385,3.9382,3.937,3.9367,3.9353,3.9361,3.9361,3.9373,3.9345,3.9381,3.9383,3.9385,3.9416,3.9421,3.9425,0,0,0,0,0,3.9416,3.9432,3.9422,3.9422,3.9415,3.9416,3.9415,3.9399,3.9386,3.9393,3.9383,3.9367,3.9372,3.9362,3.9362,3.9374,3.938,3.9383,3.9385,3.9414,3.942,3.9425,0,0,0,0,0,0,3.9447,3.943,3.9419,3.9431,3.9425,3.9411,3.9419,3.9406,3.9403,3.94,3.9381,3.9378,3.9389,3.9383,3.9371,3.9393,3.9374,3.9376,3.9396,3.9402,3.9406,3.9407,3.9345,0,0,0,0,0,3.9456,3.9458,3.9443,3.9455,3.9453,3.9437,3.9437,3.9425,3.9418,3.9415,3.9405,3.94,3.94,3.94,3.94,3.9415,3.9412,3.9424,3.9428,3.9432,3.9434,3.9442,3.9447,3.9393,3.9393,3.9393,0,0,3.9473,3.9464,3.9467,3.9461,3.9455,3.9459,3.9435,3.9439,3.9441,3.9416,3.9423,3.9416,3.9408,3.942,3.9425,3.9415,3.9448,3.9435,3.9438,3.9438,3.9445,3.945,3.9454,3.9395,3.9394,3.9394,0,0,3.9506,3.95,3.9509,3.9504,3.9495,3.9485,3.9487,3.9475,3.9469,3.9476,3.9457,3.9459,3.946,3.9455,3.9453,3.9486,3.9471,3.9486,3.9509,3.9516,3.9521,3.9524,3.9536,3.954,3.9488,3.9488,3.9488,0,3.9529,3.9533,3.9516,3.9521,3.952,3.9497,3.9507,3.9503,3.9495,3.9494,3.9483,3.9484,3.9477,3.9488,3.9496,3.9495,3.9497,3.9487,3.9521,3.9525,3.9528,3.9539,3.9543,3.949,3.949,3.949,3.949,0,3.9561,3.9564,3.9573,3.9566,3.9565,3.9573,3.9557,3.9559,3.9547,3.9538,3.9545,3.9536,3.9533,3.9535,3.9524,3.9544,3.9538,3.9525,3.9506,3.9535,3.9545,3.9549,3.9493,3.9492,3.9492,3.9491,0,0,3.9613,3.9597,3.96,3.9597,3.9586,3.9588,3.9595,3.9593,3.9594,3.959,3.9595,3.9597,3.9584,3.9582,3.957,3.9577,3.9603,3.9562,3.9562,3.957,3.9625,3.9634,3.9639,3.9593,3.9594,3.9595,3.9625,0,3.9644,3.9654,3.9639,3.9653,3.9656,3.9635,3.9641,3.9635,3.9627,3.9628,3.9619,3.962,3.9604,3.9602,3.9608,3.9598,3.9613,3.9596,3.9598,3.9598,3.96,3.9644,3.9655,3.9684,3.9629,3.9629,3.963,0,3.9681,3.9678,3.9692,3.9681,3.9681,3.9687,3.9684,3.9685,3.9678,3.9672,3.9669,3.9655,3.9661,3.9643,3.9652,3.964,3.964,3.9636,3.9636,3.9635,3.9615,3.9644,3.9693,3.9697,3.9636,3.9635,3.9635,0,3.9717,3.9717,3.9725,3.9723,3.971,3.9714,3.9709,3.9702,3.9701,3.9698,3.9698,3.9696,3.9695,3.9694,3.968,3.9668,3.969,3.9671,3.9684,3.9685,3.9689,3.9689,3.9738,3.969,3.969,3.969,3.969,0,3.9752,3.9762,3.9741,3.9746,3.9756,3.974,3.975,3.9743,3.9736,3.974,3.9722,3.9726,3.9707,3.9709,3.9698,3.9707,3.9706,3.9701,3.9698,3.9702,3.9703,3.9702,3.9699,3.9691,3.9691,3.9691,3.9691,0,3.9794,3.9781,3.9788,3.9776,3.9773,3.9781,3.977,3.9774,3.9765,3.977,3.977,3.9755,3.9757,3.9743,3.9741,3.9734,3.9747,3.9741,3.975,3.9747,3.9762,3.976,3.9811,3.9817,3.9766,3.9767,3.9767,0,3.9817,3.9824,3.9812,3.9813,3.9809,3.9811,3.981,3.9794,3.9795,3.9788,3.9793,3.9793,3.9792,3.9795,3.9784,3.9783,3.9776,3.9794,3.9776,3.978,3.9776,3.9775,3.9776,3.9798,3.9798,3.9799,3.9799,0,3.9859,3.9853,3.9852,3.985,3.985,3.9848,3.9844,3.9846,3.9829,3.983,3.9831,3.983,3.9829,3.9829,3.9826,3.9821,3.9807,3.9805,3.9808,3.9812,3.9817,3.9814,3.9759,3.9804,3.9803,3.9803,3.9803,3.9803,3.9892,3.9897,3.989,3.989,3.9886,3.9883,3.9887,3.9878,3.9879,3.9876,3.9867,3.987,3.9863,3.9858,3.9854,3.9856,3.9847,3.9852,3.9853,3.9854,3.9856,3.9817,3.9855,3.9855,3.9855,3.9855,3.9855,0,3.9933,3.9928,3.9928,3.9924,3.9924,3.9912,3.9907,3.9909,3.9911,3.9906,3.9906,3.9907,3.9907,3.9897,3.9896,3.99,3.9893,3.99,3.9899,3.9898,3.9864,3.9862,3.9905,3.9905,3.9905,3.9905,3.9905,3.9905,3.9955,3.9962,3.9955,3.9961,3.9955,3.9957,3.9956,3.9953,3.9949,3.9952,3.9952,3.9945,3.9938,3.9936,3.9936,3.9933,3.9933,3.9942,3.9937,3.9905,3.99,3.9896,3.9893,3.9942,3.9942,3.997,3.997,3.9971]}]]